Wind_Speed
20 15 10 9 10 19 16 18 13 11 10 9 9 8 7 5 5 7 9 9 9 8
18 16 12 12 14 16 18 15 14 12 10 9 9 8 7 6 7 8 7 7 6 8
17 15 22 18 18 18 16 16 12 12 10 10 9 9 8 8 9 9 6 6 7 7
23 22 20 19 19 19 18 14 12 12 11 10 9 9 8 7 7 7 7 7 8 9
21 19 20 21 20 18 16 13 13 12 11 11 10 8 7 7 8 7 8 8 8 10
20 19 19 16 15 15 14 13 12 12 10 9 8 8 8 9 8 8 8 8 10 10
18 20 17 17 18 17 15 12 11 9 8 9 10 10 9 9 9 9 9 9 11 12
16 15 15 16 14 12 12 11 10 10 10 10 10 10 9 9 9 9 10 10 11 12
14 14 14 14 13 12 12 11 12 12 11 10 11 11 11 12 12 11 10 11 11 12
14 14 13 13 13 13 12 11 11 10 9 11 11 11 12 11 12 11 11 13 13 15
13 13 12 12 12 12 11 11 11 11 11 12 12 13 14 13 13 13 14 15 16 17
13 13 13 13 11 10 10 11 12 12 12 14 14 13 14 14 14 15 16 16 18 18
12 11 12 11 10 10 12 12 11 12 13 13 13 12 14 14 15 17 18 18 18 19
10 10 9 9 10 11 11 10 11 12 13 13 13 12 13 14 16 19 20 21 22 21
Wind_Direction
201 197 240 223 252 239 235 235 235 222 214 212 236 240 241 234 246 242 240 240 239 249
206 194 223 225 226 228 226 218 215 218 220 223 229 235 230 235 234 249 252 255 253 260
217 214 221 224 221 223 224 219 218 219 214 220 227 236 232 226 238 242 248 261 266 263
215 210 213 221 222 215 217 223 220 217 214 218 232 233 230 237 239 251 261 255 266 267
209 202 197 200 208 217 221 215 211 216 221 215 220 227 238 241 248 262 260 263 263 267
195 202 203 208 208 215 213 214 211 215 216 218 225 230 237 245 252 261 264 265 264 264
189 193 198 195 199 205 201 207 207 215 216 217 225 238 235 245 253 251 259 260 262 267
192 194 190 192 198 200 202 204 212 211 214 226 233 239 247 249 255 258 259 257 262 270
185 183 185 192 197 199 207 206 210 216 221 226 239 247 250 253 252 252 257 264 261 258
185 189 193 196 198 204 209 210 220 229 232 240 250 256 262 263 259 256 252 256 257 260
197 196 198 200 206 210 215 218 224 233 238 246 250 254 264 265 260 253 253 256 260 264
202 199 201 207 211 217 220 221 232 240 243 252 259 260 262 257 251 253 258 261 266 269
212 210 210 219 220 224 226 230 242 247 252 257 258 252 255 255 253 262 272 277 275 271
203 210 214 217 215 219 228 241 238 250 255 256 259 263 256 265 272 277 280 279 279 278
Height
805 803 811 809 814 822 823 829 827 825 826 826 829 829 830 829 830 833 831 830 830 831
801 799 805 811 815 818 822 822 823 822 823 825 827 827 828 827 829 830 830 829 828 829
796 798 807 810 813 816 818 820 818 821 821 823 823 826 825 826 828 828 827 827 827 828
796 798 801 805 809 814 815 814 815 817 819 820 822 823 824 825 826 826 825 825 824 826
793 796 798 803 807 810 811 810 812 813 816 817 819 822 822 824 824 822 822 823 823 823
789 793 796 798 801 805 807 808 810 813 815 816 817 818 819 820 820 820 820 819 820 820
787 792 795 797 801 805 806 807 809 810 811 814 815 816 816 817 816 816 817 817 817 816
787 790 793 796 800 801 804 805 806 807 809 810 813 813 813 813 812 812 812 813 813 814
785 788 791 794 796 798 801 803 804 804 806 808 808 808 809 809 809 809 809 810 810 811
784 786 789 791 793 796 798 800 800 801 803 804 805 805 805 805 804 805 806 807 808 808
781 784 787 789 791 793 794 795 797 798 800 800 801 801 801 801 801 802 803 804 804 804
780 783 785 786 788 790 791 792 793 795 796 797 797 798 798 799 799 799 799 800 800 799
778 780 782 784 785 787 788 790 791 792 793 794 795 796 797 797 797 797 796 796 795 795
776 778 780 782 783 784 785 787 788 790 791 791 792 793 794 794 794 793 793 792 790 790